Total_Precipitation_Accumulation
0.00 0.00 0.00 0.00 0.00 0.00 0.00 0.00 0.01 0.01 0.02 0.02 0.00 0.00 0.02 0.17 0.17 0.26 0.00 0.00 0.01 0.08 0.11 0.05 0.10 0.10 0.06 0.01 0.01 0.00 0.00 0.00 0.01 0.00 0.01 0.00 0.00 0.00 0.00 0.00 0.00 0.00 0.00 0.00 0.00 0.00 0.01 0.01 0.14 0.08 0.06 0.25 0.09 0.08 0.03 0.01 0.01 0.00 0.12 0.00 0.00 0.00 0.00 0.00 0.02 0.03 0.03 0.01 0.00 0.00 0.00 0.00 0.01 0.00 0.00 0.00 0.08 0.03 0.04 0.13 0.23 0.06 0.11 0.10 0.08 0.08 0.46
0.01 0.01 0.01 0.00 0.00 0.00 0.00 0.01 0.01 0.02 0.06 0.16 0.04 0.00 0.04 0.21 1.13 0.23 0.04 0.00 0.04 0.12 0.20 0.14 0.12 0.08 0.04 0.04 0.02 0.01 0.02 0.00 0.01 0.00 0.03 0.00 0.01 0.02 0.00 0.00 0.00 0.00 0.00 0.00 0.00 0.02 0.00 0.01 0.02 0.08 0.03 0.27 0.04 0.02 0.03 0.02 0.05 0.06 0.29 0.09 0.03 0.15 0.03 0.00 0.09 0.07 0.15 0.16 0.03 0.00 0.00 0.00 0.00 0.01 0.02 0.00 0.00 0.02 0.08 0.04 0.09 0.02 0.09 0.24 0.15 0.09 0.42
0.00 0.01 0.01 0.00 0.01 0.00 0.00 0.01 0.01 0.02 0.05 0.09 0.08 0.01 0.05 0.38 0.64 0.19 0.30 0.03 0.04 0.45 0.41 0.20 0.10 0.19 0.12 0.11 0.04 0.06 0.01 0.00 0.01 0.02 0.03 0.01 0.00 0.00 0.00 0.00 0.04 0.00 0.00 0.00 0.00 0.00 0.00 0.05 0.03 0.02 0.07 0.28 0.00 0.01 0.00 0.02 0.17 0.08 0.04 0.00 0.07 0.07 0.17 0.01 0.06 0.23 0.13 0.15 0.21 0.27 0.12 0.05 0.03 0.00 0.00 0.01 0.01 0.19 0.11 0.07 0.08 0.02 0.06 0.03 0.12 0.47 0.16
0.01 0.01 0.00 0.00 0.00 0.00 0.00 0.01 0.01 0.02 0.03 0.03 0.04 0.01 0.12 0.53 0.32 0.24 0.46 0.91 0.86 0.11 0.14 0.12 0.24 0.12 0.11 0.03 0.06 0.02 0.12 0.01 0.00 0.00 0.02 0.00 0.01 0.00 0.01 0.00 0.00 0.00 0.00 0.00 0.00 0.00 0.01 0.01 0.04 0.02 0.06 0.07 0.04 0.00 0.01 0.15 0.06 0.08 0.03 0.05 0.02 0.25 0.05 0.10 0.04 0.23 0.36 0.46 0.37 0.12 0.05 0.23 0.05 0.05 0.01 0.06 0.00 0.02 0.05 0.09 0.06 0.18 0.15 0.08 0.18 0.15 0.18
0.01 0.01 0.01 0.00 0.00 0.00 0.00 0.01 0.01 0.01 0.03 0.04 0.05 0.01 0.10 0.30 0.41 0.05 0.15 0.15 0.23 0.47 0.18 0.07 0.09 0.23 0.22 0.10 0.04 0.08 0.03 0.03 0.02 0.01 0.09 0.00 0.01 0.00 0.00 0.00 0.01 0.00 0.00 0.00 0.01 0.00 0.01 0.00 0.00 0.06 0.15 0.22 0.12 0.01 0.04 0.16 0.04 0.01 0.03 0.05 0.23 0.27 0.22 0.08 0.13 0.15 0.07 0.09 0.13 0.21 0.09 0.08 0.05 0.05 0.05 0.02 0.03 0.02 0.09 0.04 0.09 0.32 0.14 0.20 0.41 0.23 0.03
0.01 0.01 0.00 0.00 0.00 0.00 0.00 0.01 0.01 0.02 0.01 0.01 0.03 0.09 0.07 0.25 0.43 0.07 0.22 0.30 0.31 0.36 0.84 0.18 0.47 0.09 0.07 0.15 0.07 0.12 0.13 0.12 0.12 0.00 0.00 0.00 0.00 0.00 0.00 0.00 0.00 0.00 0.00 0.00 0.00 0.03 0.01 0.01 0.02 0.01 0.05 0.07 0.21 0.42 0.02 0.07 0.04 0.03 0.08 0.14 0.17 0.48 0.36 0.34 0.08 0.25 0.13 0.07 0.07 0.11 0.12 0.10 0.10 0.11 0.11 0.07 0.09 0.08 0.06 0.02 0.03 0.14 0.06 0.11 0.32 0.47 0.13
0.01 0.00 0.00 0.00 0.00 0.00 0.01 0.01 0.02 0.01 0.01 0.01 0.04 0.07 0.04 0.53 0.28 0.21 0.03 0.39 0.51 0.50 0.38 0.28 0.26 0.49 0.15 0.29 0.09 0.18 0.07 0.18 0.15 0.16 0.08 0.01 0.04 0.00 0.02 0.00 0.01 0.00 0.00 0.02 0.03 0.03 0.12 0.03 0.02 0.05 0.08 0.19 0.23 0.44 0.26 0.15 0.09 0.01 0.08 0.22 0.15 0.17 0.44 0.61 0.43 0.46 0.25 0.14 0.13 0.11 0.25 0.15 0.12 0.20 0.19 0.14 0.17 0.11 0.17 0.12 0.05 0.14 0.17 0.05 0.04 0.11 0.22
0.01 0.00 0.00 0.00 0.00 0.00 0.00 0.01 0.02 0.00 0.01 0.01 0.03 0.03 0.47 0.36 0.31 0.32 0.10 0.16 0.20 0.24 0.30 0.46 0.36 0.28 0.06 0.19 0.22 0.27 0.15 0.16 0.15 0.19 0.17 0.07 0.06 0.01 0.04 0.03 0.02 0.01 0.01 0.01 0.09 0.14 0.04 0.09 0.11 0.13 0.08 0.14 0.11 0.41 0.45 0.65 0.27 0.10 0.11 0.12 0.37 0.04 0.43 0.14 0.29 0.46 0.76 0.52 0.13 0.14 0.32 0.21 0.12 0.07 0.12 0.17 0.35 0.21 0.06 0.15 0.25 0.17 0.17 0.04 0.03 0.00 0.07
0.01 0.00 0.00 0.00 0.00 0.00 0.00 0.01 0.01 0.01 0.01 0.01 0.01 0.17 0.28 0.38 0.08 0.05 0.11 0.10 0.13 0.11 0.13 0.29 0.46 0.40 0.14 0.22 0.27 0.16 0.22 0.29 0.28 0.30 0.06 0.10 0.09 0.04 0.11 0.12 0.10 0.05 0.03 0.01 0.02 0.01 0.01 0.01 0.01 0.07 0.34 0.19 0.23 0.06 0.33 0.04 0.20 0.19 0.13 0.15 0.49 0.10 0.53 0.41 0.58 0.21 0.48 0.28 0.21 0.14 0.27 0.39 0.22 0.11 0.08 0.11 0.12 0.22 0.08 0.06 0.15 0.34 0.27 0.22 0.10 0.00 0.05
0.00 0.00 0.00 0.00 0.00 0.00 0.00 0.01 0.00 0.00 0.01 0.02 0.02 0.05 0.40 0.65 0.03 0.02 0.03 0.05 0.00 0.03 0.06 0.14 0.28 0.64 0.42 0.25 0.13 0.12 0.08 0.09 0.12 0.15 0.07 0.04 0.02 0.03 0.01 0.08 0.16 0.06 0.04 0.05 0.03 0.02 0.00 0.01 0.00 0.00 0.02 0.02 0.50 0.35 0.44 0.51 0.65 0.53 0.24 0.38 0.42 0.41 0.14 0.14 0.41 0.32 0.39 0.62 0.22 0.41 0.26 0.41 0.36 0.59 0.16 0.08 0.09 0.12 0.06 0.07 0.05 0.16 0.67 0.53 0.26 0.07 0.04
0.00 0.00 0.00 0.00 0.00 0.00 0.00 0.01 0.01 0.00 0.01 0.02 0.03 0.09 0.34 0.32 0.09 0.09 0.05 0.06 0.00 0.01 0.03 0.04 0.14 0.26 0.34 0.34 0.27 0.08 0.08 0.05 0.01 0.12 0.21 0.02 0.05 0.01 0.01 0.02 0.04 0.12 0.05 0.05 0.02 0.02 0.03 0.02 0.03 0.02 0.00 0.01 0.04 0.14 0.40 0.21 0.10 0.35 0.44 0.21 0.14 0.27 0.14 0.21 0.38 0.64 0.62 0.58 0.91 0.40 0.39 0.62 0.47 0.25 0.18 0.12 0.11 0.09 0.09 0.09 0.07 0.10 0.18 0.69 0.40 0.25 0.10
0.01 0.00 0.00 0.00 0.00 0.00 0.00 0.00 0.01 0.01 0.01 0.01 0.03 0.05 0.40 0.32 0.11 0.12 0.07 0.02 0.00 0.00 0.02 0.03 0.01 0.03 0.05 0.07 0.22 0.26 0.19 0.07 0.15 0.00 0.23 0.03 0.06 0.05 0.03 0.02 0.01 0.08 0.03 0.00 0.00 0.01 0.01 0.01 0.03 0.03 0.03 0.02 0.03 0.03 0.02 0.05 0.13 0.19 0.13 0.16 0.22 0.14 0.22 0.22 0.41 0.37 0.72 0.57 0.47 0.62 0.63 0.41 0.35 0.22 0.25 0.14 0.19 0.05 0.03 0.04 0.04 0.05 0.04 0.08 0.31 0.44 0.32
0.01 0.00 0.00 0.00 0.00 0.00 0.00 0.00 0.01 0.00 0.00 0.02 0.01 0.23 0.45 0.16 0.10 0.06 0.03 0.01 0.01 0.00 0.00 0.02 0.01 0.01 0.02 0.02 0.02 0.02 0.06 0.08 0.04 0.02 0.02 0.14 0.07 0.02 0.03 0.06 0.01 0.04 0.00 0.00 0.00 0.00 0.03 0.13 0.13 0.04 0.05 0.03 0.04 0.08 0.06 0.06 0.02 0.05 0.06 0.04 0.13 0.11 0.10 0.17 0.18 0.23 0.19 0.27 0.61 0.60 0.56 0.35 0.38 0.20 0.15 0.18 0.12 0.14 0.12 0.08 0.07 0.05 0.03 0.02 0.06 0.38 0.42
0.00 0.01 0.00 0.00 0.00 0.00 0.00 0.01 0.00 0.01 0.01 0.01 0.01 0.25 0.36 0.12 0.14 0.03 0.03 0.01 0.00 0.00 0.00 0.02 0.01 0.01 0.00 0.00 0.01 0.01 0.01 0.01 0.03 0.01 0.04 0.02 0.02 0.03 0.01 0.00 0.00 0.00 0.00 0.00 0.00 0.00 0.02 0.09 0.12 0.14 0.19 0.22 0.45 0.20 0.15 0.46 0.20 0.15 0.06 0.06 0.04 0.25 0.25 0.11 0.22 0.20 0.35 0.22 0.37 0.31 0.41 0.35 0.38 0.34 0.26 0.18 0.19 0.16 0.13 0.16 0.25 0.14 0.04 0.02 0.02 0.07 0.16
0.01 0.00 0.00 0.00 0.00 0.00 0.00 0.00 0.00 0.01 0.00 0.00 0.01 0.32 0.32 0.07 0.02 0.03 0.02 0.01 0.00 0.00 0.00 0.00 0.00 0.00 0.00 0.00 0.00 0.00 0.01 0.03 0.00 0.02 0.02 0.01 0.01 0.01 0.02 0.00 0.00 0.00 0.00 0.03 0.00 0.05 0.09 0.35 0.14 0.17 0.17 0.25 0.29 0.32 0.27 0.21 0.15 0.42 0.27 0.10 0.05 0.16 0.23 0.44 0.28 0.20 0.18 0.27 0.37 0.36 0.34 0.41 0.27 0.24 0.34 0.21 0.20 0.11 0.14 0.16 0.21 0.13 0.16 0.07 0.03 0.04 0.07
0.01 0.01 0.00 0.00 0.00 0.00 0.00 0.00 0.00 0.00 0.00 0.00 0.02 0.39 0.39 0.00 0.00 0.00 0.00 0.01 0.00 0.00 0.00 0.00 0.00 0.00 0.00 0.00 0.00 0.00 0.02 0.00 0.01 0.01 0.02 0.01 0.00 0.00 0.00 0.00 0.00 0.00 0.01 0.00 0.05 0.08 0.11 0.09 0.09 0.11 0.21 0.27 0.35 0.56 0.12 0.20 0.21 0.18 0.16 0.13 0.13 0.15 0.08 0.65 0.23 0.95 0.12 0.26 0.32 0.39 0.35 0.33 0.34 0.29 0.13 0.15 0.10 0.10 0.15 0.06 0.14 0.30 0.10 0.08 0.07 0.06 0.07
0.01 0.01 0.01 0.00 0.00 0.00 0.00 0.00 0.00 0.00 0.00 0.01 0.05 0.33 0.04 0.00 0.00 0.01 0.01 0.00 0.00 0.00 0.00 0.00 0.00 0.00 0.00 0.00 0.01 0.01 0.00 0.03 0.02 0.01 0.03 0.01 0.01 0.01 0.00 0.00 0.00 0.03 0.27 0.15 0.42 0.09 0.22 0.17 0.48 0.27 0.18 0.16 0.14 0.08 0.20 0.20 0.37 0.23 0.13 0.43 0.42 0.37 0.17 0.08 0.12 0.21 0.12 0.15 0.45 0.57 0.25 0.22 0.22 0.16 0.10 0.26 0.54 0.08 0.09 0.15 0.26 0.17 0.12 0.10 0.12 0.12 0.07
0.01 0.01 0.01 0.00 0.00 0.00 0.00 0.00 0.00 0.00 0.00 0.00 0.05 0.33 0.02 0.00 0.00 0.00 0.00 0.00 0.00 0.00 0.00 0.00 0.00 0.00 0.00 0.00 0.00 0.00 0.00 0.00 0.01 0.01 0.01 0.01 0.00 0.00 0.01 0.00 0.01 0.00 0.02 0.06 0.10 0.08 0.25 0.12 0.15 0.16 0.20 0.08 0.18 0.06 0.27 0.27 0.14 0.21 0.22 0.18 0.24 0.12 0.08 0.11 0.18 0.25 0.43 0.24 0.59 0.32 0.17 0.11 0.08 0.15 0.20 0.24 0.42 0.39 0.24 0.39 0.32 0.14 0.08 0.05 0.07 0.18 0.17
0.01 0.01 0.01 0.01 0.00 0.00 0.00 0.00 0.01 0.00 0.01 0.00 0.05 0.02 0.00 0.00 0.00 0.00 0.00 0.00 0.00 0.00 0.00 0.00 0.00 0.00 0.00 0.00 0.00 0.00 0.00 0.00 0.01 0.01 0.00 0.01 0.01 0.00 0.02 0.00 0.00 0.02 0.01 0.02 0.06 0.26 0.25 0.58 0.24 0.42 0.32 0.30 0.18 0.18 0.20 0.20 0.35 0.47 0.16 0.27 0.24 0.08 0.02 0.12 0.15 0.44 0.32 0.42 0.37 0.42 0.61 0.49 0.28 0.21 0.07 0.19 0.07 0.31 0.43 0.35 0.14 0.16 0.08 0.06 0.04 0.10 0.18
0.02 0.01 0.01 0.01 0.00 0.00 0.00 0.00 0.00 0.01 0.00 0.01 0.05 0.01 0.00 0.00 0.00 0.00 0.01 0.01 0.00 0.00 0.00 0.00 0.00 0.00 0.00 0.00 0.01 0.01 0.01 0.01 0.01 0.01 0.04 0.14 0.00 0.00 0.01 0.01 0.00 0.01 0.01 0.01 0.03 0.06 0.11 0.15 0.18 0.10 0.19 0.43 0.32 0.46 0.25 0.15 0.16 0.22 0.18 0.34 0.28 0.31 0.21 0.20 0.12 0.40 0.22 0.20 0.26 0.42 0.57 1.63 0.11 0.18 0.23 0.45 0.08 0.31 0.23 0.18 0.19 0.06 0.06 0.06 0.09 0.10 0.10
0.01 0.01 0.01 0.01 0.00 0.00 0.00 0.00 0.00 0.01 0.01 0.02 0.01 0.00 0.00 0.00 0.00 0.00 0.00 0.00 0.00 0.00 0.00 0.00 0.00 0.00 0.00 0.00 0.00 0.00 0.00 0.00 0.00 0.03 0.01 0.05 0.03 0.02 0.15 0.20 0.02 0.04 0.02 0.02 0.06 0.02 0.02 0.02 0.14 0.14 0.11 0.03 0.16 0.05 0.27 0.10 0.07 0.05 0.02 0.35 0.21 0.61 0.16 0.14 0.06 0.07 0.32 0.49 0.29 0.42 0.64 0.23 0.16 0.08 0.29 0.37 0.16 0.29 0.22 0.17 0.19 0.09 0.05 0.08 0.06 0.09 0.07
0.01 0.01 0.01 0.01 0.00 0.00 0.00 0.00 0.01 0.01 0.01 0.01 0.00 0.00 0.00 0.00 0.00 0.00 0.00 0.00 0.00 0.00 0.00 0.00 0.00 0.00 0.00 0.00 0.00 0.00 0.00 0.00 0.00 0.00 0.02 0.01 0.01 0.01 0.03 0.03 0.01 0.14 0.04 0.05 0.19 0.02 0.02 0.17 0.15 0.03 0.07 0.10 0.14 0.14 0.09 0.16 0.08 0.08 0.00 0.07 0.46 0.22 0.12 0.14 0.09 0.19 0.08 0.17 0.28 0.30 0.23 0.22 0.24 0.15 0.17 0.29 0.28 0.20 0.22 0.17 0.19 0.14 0.13 0.08 0.09 0.11 0.07
0.01 0.01 0.01 0.02 0.00 0.00 0.00 0.00 0.01 0.01 0.01 0.00 0.00 0.00 0.00 0.00 0.00 0.00 0.00 0.00 0.00 0.00 0.00 0.00 0.00 0.00 0.00 0.00 0.00 0.00 0.00 0.00 0.00 0.00 0.00 0.00 0.02 0.02 0.06 0.06 0.02 0.00 0.02 0.02 0.14 0.07 0.04 0.12 0.13 0.11 0.05 0.11 0.21 0.10 0.09 0.07 0.06 0.05 0.05 0.04 0.20 0.07 0.04 0.21 0.02 0.12 0.09 0.13 0.17 0.20 0.21 0.24 0.24 0.22 0.24 0.17 0.25 0.28 0.23 0.22 0.15 0.16 0.16 0.09 0.13 0.08 0.04
0.01 0.01 0.01 0.01 0.00 0.00 0.00 0.01 0.00 0.01 0.00 0.01 0.01 0.00 0.00 0.00 0.00 0.00 0.00 0.00 0.00 0.00 0.00 0.00 0.00 0.00 0.00 0.00 0.00 0.00 0.00 0.00 0.00 0.00 0.00 0.00 0.01 0.00 0.01 0.00 0.02 0.01 0.01 0.01 0.00 0.09 0.01 0.09 0.15 0.04 0.03 0.05 0.10 0.07 0.14 0.23 0.04 0.04 0.02 0.08 0.09 0.11 0.02 0.33 0.06 0.11 0.06 0.25 0.26 0.16 0.21 0.22 0.18 0.28 0.28 0.25 0.23 0.28 0.29 0.30 0.31 0.27 0.20 0.17 0.17 0.05 0.02
0.02 0.01 0.01 0.01 0.00 0.00 0.00 0.00 0.01 0.01 0.00 0.00 0.00 0.00 0.00 0.00 0.00 0.00 0.00 0.00 0.00 0.00 0.00 0.00 0.00 0.00 0.00 0.00 0.00 0.00 0.00 0.00 0.00 0.00 0.00 0.00 0.00 0.00 0.00 0.02 0.00 0.00 0.03 0.01 0.01 0.01 0.00 0.04 0.02 0.05 0.02 0.02 0.08 0.06 0.04 0.05 0.06 0.03 0.05 0.11 0.03 0.16 0.19 0.24 0.05 0.07 0.07 0.32 0.21 0.13 0.15 0.21 0.22 0.19 0.17 0.18 0.21 0.24 0.29 0.40 0.49 0.53 0.36 0.30 0.23 0.14 0.05
0.01 0.01 0.01 0.00 0.00 0.00 0.00 0.00 0.01 0.00 0.00 0.00 0.00 0.00 0.00 0.00 0.00 0.00 0.00 0.00 0.00 0.00 0.00 0.00 0.00 0.00 0.00 0.00 0.00 0.00 0.00 0.00 0.00 0.00 0.00 0.00 0.00 0.00 0.01 0.01 0.03 0.01 0.01 0.01 0.06 0.01 0.01 0.02 0.02 0.02 0.04 0.04 0.05 0.03 0.03 0.02 0.10 0.00 0.02 0.08 0.02 0.08 0.02 0.04 0.07 0.07 0.12 0.10 0.12 0.11 0.10 0.11 0.17 0.20 0.20 0.22 0.21 0.21 0.37 0.46 0.59 0.68 0.50 0.37 0.27 0.19 0.12
0.01 0.01 0.01 0.00 0.00 0.00 0.00 0.00 0.00 0.00 0.00 0.00 0.00 0.00 0.00 0.00 0.00 0.00 0.01 0.01 0.00 0.00 0.00 0.00 0.00 0.00 0.00 0.00 0.00 0.00 0.00 0.00 0.00 0.00 0.00 0.00 0.00 0.00 0.01 0.01 0.01 0.02 0.01 0.03 0.03 0.00 0.00 0.00 0.01 0.02 0.02 0.06 0.07 0.10 0.04 0.03 0.08 0.03 0.04 0.04 0.03 0.06 0.10 0.08 0.04 0.10 0.13 0.23 0.21 0.08 0.09 0.26 0.26 0.17 0.19 0.14 0.08 0.16 0.19 0.25 0.40 0.48 0.51 0.47 0.38 0.29 0.21
0.01 0.01 0.00 0.00 0.00 0.00 0.00 0.00 0.00 0.00 0.00 0.00 0.00 0.00 0.00 0.00 0.00 0.00 0.00 0.00 0.00 0.02 0.00 0.00 0.00 0.00 0.00 0.00 0.00 0.00 0.00 0.00 0.00 0.00 0.00 0.00 0.00 0.00 0.00 0.01 0.01 0.01 0.02 0.01 0.01 0.07 0.07 0.05 0.09 0.06 0.03 0.09 0.07 0.09 0.05 0.12 0.14 0.03 0.02 0.06 0.04 0.12 0.08 0.13 0.07 0.07 0.12 0.07 0.05 0.15 0.09 0.07 0.09 0.08 0.08 0.05 0.06 0.09 0.11 0.13 0.12 0.15 0.22 0.32 0.36 0.34 0.25
0.01 0.00 0.00 0.00 0.00 0.00 0.00 0.00 0.00 0.00 0.00 0.00 0.00 0.00 0.00 0.00 0.00 0.00 0.00 0.00 0.00 0.00 0.00 0.00 0.00 0.00 0.00 0.00 0.00 0.00 0.00 0.00 0.00 0.00 0.00 0.00 0.00 0.00 0.00 0.00 0.01 0.02 0.02 0.02 0.03 0.02 0.01 0.01 0.01 0.02 0.09 0.21 0.10 0.08 0.05 0.04 0.03 0.01 0.06 0.05 0.04 0.04 0.06 0.08 0.09 0.06 0.06 0.07 0.12 0.08 0.14 0.14 0.06 0.02 0.03 0.03 0.03 0.05 0.02 0.03 0.06 0.09 0.07 0.06 0.07 0.08 0.10
0.00 0.00 0.00 0.00 0.00 0.00 0.00 0.00 0.00 0.00 0.00 0.00 0.00 0.02 0.00 0.01 0.00 0.01 0.00 0.01 0.01 0.02 0.01 0.01 0.00 0.00 0.00 0.00 0.00 0.00 0.00 0.00 0.00 0.00 0.00 0.00 0.00 0.00 0.00 0.00 0.02 0.00 0.01 0.00 0.01 0.02 0.01 0.00 0.01 0.02 0.01 0.05 0.07 0.14 0.08 0.04 0.02 0.03 0.01 0.01 0.02 0.03 0.08 0.06 0.05 0.10 0.15 0.04 0.05 0.04 0.03 0.03 0.00 0.00 0.02 0.03 0.04 0.05 0.06 0.08 0.11 0.10 0.05 0.03 0.03 0.03 0.03
0.00 0.00 0.00 0.00 0.00 0.00 0.00 0.00 0.00 0.00 0.00 0.00 0.02 0.00 0.00 0.01 0.01 0.00 0.00 0.00 0.01 0.01 0.01 0.00 0.00 0.00 0.00 0.00 0.00 0.00 0.00 0.00 0.00 0.00 0.00 0.00 0.00 0.00 0.00 0.00 0.00 0.00 0.01 0.00 0.00 0.01 0.02 0.01 0.01 0.01 0.02 0.03 0.08 0.14 0.06 0.04 0.03 0.04 0.02 0.01 0.03 0.03 0.07 0.06 0.08 0.08 0.05 0.02 0.02 0.03 0.03 0.02 0.03 0.02 0.03 0.05 0.03 0.07 0.09 0.05 0.05 0.02 0.03 0.03 0.03 0.03 0.03
0.00 0.00 0.00 0.00 0.00 0.00 0.00 0.00 0.00 0.00 0.00 0.00 0.00 0.00 0.01 0.01 0.00 0.00 0.00 0.00 0.00 0.01 0.00 0.00 0.00 0.00 0.00 0.00 0.00 0.00 0.00 0.00 0.00 0.00 0.00 0.00 0.00 0.00 0.00 0.00 0.01 0.01 0.00 0.00 0.00 0.00 0.00 0.00 0.00 0.01 0.02 0.06 0.04 0.44 0.05 0.03 0.01 0.01 0.03 0.03 0.04 0.03 0.04 0.02 0.03 0.02 0.01 0.04 0.03 0.04 0.05 0.04 0.06 0.08 0.05 0.02 0.01 0.01 0.03 0.03 0.02 0.03 0.02 0.02 0.01 0.01 0.02
0.00 0.00 0.00 0.00 0.00 0.00 0.00 0.00 0.00 0.00 0.00 0.00 0.00 0.00 0.00 0.00 0.00 0.00 0.00 0.00 0.02 0.00 0.01 0.04 0.01 0.00 0.00 0.00 0.00 0.00 0.00 0.01 0.02 0.00 0.00 0.00 0.00 0.00 0.00 0.00 0.00 0.00 0.00 0.00 0.00 0.00 0.02 0.00 0.00 0.00 0.01 0.02 0.03 0.03 0.03 0.03 0.03 0.03 0.02 0.02 0.03 0.04 0.02 0.03 0.02 0.04 0.02 0.04 0.11 0.17 0.14 0.07 0.03 0.01 0.02 0.01 0.02 0.02 0.04 0.02 0.01 0.02 0.02 0.02 0.09 0.08 0.07
0.00 0.00 0.00 0.00 0.00 0.00 0.00 0.00 0.00 0.00 0.00 0.01 0.05 0.00 0.01 0.00 0.00 0.00 0.00 0.00 0.01 0.00 0.00 0.00 0.00 0.00 0.00 0.00 0.00 0.01 0.00 0.00 0.00 0.00 0.00 0.00 0.00 0.00 0.00 0.00 0.00 0.00 0.00 0.00 0.01 0.00 0.01 0.00 0.00 0.00 0.01 0.01 0.12 0.22 0.02 0.08 0.02 0.03 0.03 0.03 0.02 0.04 0.02 0.01 0.04 0.04 0.09 0.08 0.13 0.11 0.09 0.04 0.02 0.03 0.03 0.05 0.04 0.04 0.05 0.03 0.08 0.11 0.04 0.10 0.11 0.11 0.13
0.00 0.00 0.00 0.00 0.00 0.00 0.00 0.00 0.00 0.00 0.00 0.00 0.00 0.02 0.00 0.00 0.00 0.00 0.00 0.01 0.02 0.00 0.00 0.01 0.00 0.00 0.00 0.00 0.00 0.00 0.00 0.00 0.00 0.00 0.00 0.00 0.00 0.00 0.00 0.00 0.00 0.00 0.02 0.00 0.00 0.00 0.00 0.00 0.00 0.00 0.03 0.02 0.04 0.03 0.02 0.07 0.02 0.01 0.02 0.02 0.03 0.02 0.02 0.04 0.23 0.13 0.15 0.21 0.08 0.07 0.04 0.04 0.03 0.05 0.09 0.06 0.09 0.03 0.02 0.02 0.12 0.11 0.10 0.10 0.13 0.05 0.16
0.00 0.00 0.00 0.00 0.00 0.00 0.00 0.00 0.00 0.00 0.03 0.01 0.00 0.00 0.00 0.00 0.00 0.00 0.00 0.00 0.02 0.03 0.00 0.00 0.00 0.00 0.00 0.00 0.00 0.00 0.00 0.00 0.00 0.00 0.00 0.00 0.00 0.00 0.00 0.00 0.00 0.00 0.00 0.00 0.00 0.00 0.00 0.04 0.01 0.04 0.02 0.02 0.04 0.03 0.06 0.03 0.04 0.06 0.04 0.04 0.06 0.07 0.13 0.20 0.21 0.13 0.10 0.05 0.05 0.03 0.07 0.09 0.14 0.09 0.07 0.07 0.03 0.02 0.02 0.02 0.05 0.19 0.15 0.05 0.07 0.09 0.22
0.00 0.00 0.00 0.00 0.00 0.00 0.01 0.00 0.01 0.00 0.01 0.00 0.00 0.00 0.00 0.00 0.00 0.00 0.00 0.04 0.03 0.00 0.00 0.00 0.00 0.00 0.00 0.00 0.00 0.00 0.00 0.01 0.00 0.00 0.00 0.00 0.00 0.00 0.00 0.00 0.00 0.00 0.00 0.00 0.00 0.00 0.02 0.00 0.01 0.03 0.03 0.06 0.02 0.03 0.04 0.04 0.09 0.06 0.04 0.06 0.10 0.20 0.15 0.19 0.17 0.10 0.08 0.07 0.08 0.08 0.05 0.03 0.02 0.05 0.03 0.03 0.03 0.03 0.03 0.02 0.03 0.03 0.04 0.09 0.13 0.39 0.35
0.00 0.00 0.00 0.00 0.00 0.00 0.01 0.00 0.01 0.00 0.00 0.00 0.00 0.00 0.01 0.00 0.01 0.00 0.01 0.00 0.01 0.04 0.04 0.01 0.02 0.01 0.01 0.00 0.01 0.00 0.00 0.00 0.00 0.00 0.00 0.00 0.00 0.00 0.00 0.00 0.00 0.00 0.00 0.00 0.00 0.00 0.00 0.00 0.02 0.03 0.01 0.03 0.08 0.09 0.20 0.13 0.06 0.16 0.15 0.23 0.28 0.21 0.19 0.21 0.44 0.37 0.15 0.04 0.04 0.04 0.01 0.01 0.02 0.04 0.04 0.05 0.05 0.05 0.04 0.05 0.05 0.06 0.08 0.12 0.16 0.21 0.22
0.00 0.00 0.00 0.00 0.01 0.00 0.00 0.00 0.00 0.00 0.00 0.00 0.00 0.00 0.00 0.00 0.00 0.00 0.00 0.00 0.00 0.01 0.01 0.01 0.01 0.00 0.00 0.00 0.00 0.02 0.00 0.00 0.01 0.00 0.00 0.00 0.00 0.00 0.00 0.00 0.00 0.00 0.00 0.00 0.00 0.00 0.01 0.00 0.01 0.01 0.07 0.11 0.21 0.19 0.06 0.04 0.10 0.13 0.34 0.50 0.34 0.48 0.30 0.21 0.16 0.14 0.12 0.10 0.09 0.09 0.12 0.12 0.09 0.09 0.06 0.08 0.08 0.10 0.06 0.07 0.13 0.15 0.13 0.25 0.24 0.21 0.19
0.00 0.00 0.00 0.00 0.00 0.00 0.00 0.00 0.00 0.00 0.00 0.00 0.00 0.00 0.00 0.00 0.00 0.00 0.00 0.00 0.00 0.00 0.01 0.01 0.01 0.00 0.00 0.00 0.00 0.00 0.02 0.00 0.01 0.01 0.01 0.00 0.00 0.00 0.00 0.00 0.01 0.00 0.00 0.00 0.00 0.00 0.02 0.01 0.02 0.04 0.11 0.19 0.14 0.07 0.06 0.28 0.19 0.20 0.41 0.48 0.46 0.23 0.28 0.15 0.13 0.11 0.10 0.04 0.05 0.09 0.10 0.07 0.08 0.09 0.08 0.08 0.11 0.19 0.19 0.27 0.63 0.47 0.27 0.13 0.14 0.18 0.28
0.00 0.00 0.02 0.00 0.00 0.00 0.00 0.00 0.00 0.00 0.00 0.00 0.00 0.00 0.00 0.00 0.00 0.00 0.00 0.00 0.00 0.00 0.00 0.00 0.00 0.02 0.01 0.00 0.00 0.00 0.11 0.00 0.00 0.00 0.01 0.00 0.00 0.00 0.01 0.00 0.00 0.00 0.00 0.00 0.00 0.00 0.01 0.04 0.10 0.06 0.17 0.10 0.04 0.09 0.13 0.18 0.10 0.14 0.44 0.43 0.29 0.14 0.06 0.05 0.09 0.04 0.03 0.05 0.07 0.11 0.08 0.07 0.06 0.11 0.15 0.15 0.12 0.26 0.70 0.91 0.72 0.37 0.22 0.15 0.21 0.32 0.63
0.01 0.01 0.01 0.00 0.00 0.01 0.00 0.00 0.00 0.00 0.00 0.00 0.00 0.00 0.00 0.00 0.00 0.00 0.00 0.00 0.00 0.00 0.00 0.00 0.00 0.00 0.00 0.00 0.00 0.00 0.00 0.00 0.00 0.00 0.00 0.00 0.01 0.00 0.00 0.00 0.02 0.02 0.00 0.00 0.00 0.00 0.03 0.09 0.07 0.12 0.09 0.02 0.03 0.13 0.12 0.14 0.16 0.27 0.48 0.36 0.24 0.08 0.05 0.05 0.03 0.03 0.04 0.10 0.14 0.11 0.12 0.12 0.11 0.17 0.18 0.14 0.12 0.17 0.37 0.49 0.48 0.34 0.20 0.22 0.29 0.46 0.63
0.00 0.00 0.01 0.01 0.00 0.00 0.00 0.00 0.00 0.00 0.00 0.00 0.00 0.00 0.00 0.00 0.00 0.00 0.00 0.00 0.00 0.00 0.00 0.00 0.00 0.00 0.01 0.00 0.00 0.00 0.00 0.00 0.00 0.05 0.00 0.00 0.00 0.00 0.00 0.00 0.00 0.00 0.00 0.00 0.00 0.07 0.09 0.13 0.09 0.09 0.02 0.01 0.03 0.11 0.12 0.28 0.40 0.60 0.37 0.24 0.13 0.05 0.05 0.05 0.04 0.07 0.09 0.08 0.09 0.14 0.17 0.17 0.22 0.30 0.28 0.22 0.15 0.15 0.22 0.33 0.24 0.21 0.22 0.26 0.34 0.50 0.67
0.00 0.00 0.00 0.00 0.00 0.00 0.00 0.00 0.00 0.00 0.00 0.00 0.00 0.00 0.00 0.00 0.00 0.00 0.00 0.00 0.00 0.00 0.00 0.00 0.01 0.00 0.00 0.00 0.00 0.00 0.00 0.03 0.01 0.00 0.00 0.00 0.00 0.00 0.00 0.00 0.00 0.00 0.00 0.00 0.03 0.07 0.09 0.09 0.08 0.04 0.02 0.02 0.08 0.13 0.16 0.40 0.49 0.46 0.30 0.13 0.08 0.07 0.07 0.05 0.07 0.10 0.11 0.15 0.19 0.23 0.27 0.19 0.16 0.15 0.17 0.21 0.18 0.20 0.20 0.22 0.15 0.15 0.18 0.25 0.30 0.36 0.35
0.00 0.00 0.00 0.00 0.00 0.00 0.00 0.00 0.00 0.00 0.00 0.00 0.00 0.00 0.00 0.00 0.00 0.00 0.00 0.00 0.00 0.01 0.00 0.00 0.00 0.00 0.00 0.00 0.00 0.00 0.00 0.01 0.00 0.00 0.01 0.00 0.00 0.00 0.00 0.00 0.00 0.00 0.01 0.01 0.04 0.06 0.02 0.03 0.04 0.03 0.05 0.09 0.20 0.28 0.36 0.39 0.35 0.31 0.16 0.07 0.07 0.10 0.09 0.11 0.15 0.17 0.18 0.19 0.23 0.27 0.40 0.45 0.37 0.36 0.36 0.33 0.23 0.17 0.17 0.16 0.11 0.11 0.11 0.15 0.19 0.23 0.20
0.00 0.00 0.00 0.00 0.00 0.00 0.00 0.00 0.00 0.00 0.00 0.00 0.00 0.00 0.00 0.00 0.00 0.00 0.00 0.00 0.00 0.00 0.00 0.00 0.00 0.00 0.00 0.00 0.00 0.00 0.00 0.01 0.00 0.00 0.00 0.00 0.00 0.00 0.00 0.00 0.00 0.00 0.03 0.06 0.04 0.03 0.03 0.01 0.03 0.06 0.19 0.17 0.24 0.46 0.43 0.26 0.18 0.19 0.12 0.08 0.07 0.12 0.15 0.14 0.14 0.17 0.22 0.28 0.34 0.38 0.47 0.47 0.44 0.47 0.49 0.43 0.30 0.22 0.20 0.15 0.11 0.12 0.08 0.10 0.08 0.11 0.09
0.00 0.00 0.00 0.00 0.00 0.00 0.00 0.00 0.00 0.00 0.00 0.00 0.00 0.00 0.00 0.00 0.00 0.00 0.00 0.00 0.00 0.00 0.00 0.00 0.00 0.00 0.00 0.00 0.00 0.00 0.00 0.01 0.00 0.00 0.00 0.00 0.01 0.00 0.00 0.01 0.01 0.01 0.03 0.03 0.03 0.02 0.01 0.02 0.02 0.16 0.30 0.25 0.31 0.41 0.26 0.23 0.20 0.18 0.12 0.07 0.05 0.12 0.15 0.16 0.14 0.17 0.24 0.27 0.28 0.28 0.29 0.29 0.32 0.32 0.25 0.24 0.23 0.21 0.21 0.19 0.16 0.12 0.10 0.11 0.08 0.08 0.08
0.01 0.00 0.00 0.00 0.00 0.00 0.00 0.00 0.00 0.00 0.00 0.00 0.00 0.00 0.00 0.00 0.00 0.00 0.00 0.00 0.00 0.00 0.00 0.00 0.00 0.00 0.00 0.02 0.00 0.01 0.00 0.00 0.01 0.00 0.00 0.01 0.00 0.01 0.01 0.01 0.02 0.00 0.04 0.03 0.02 0.01 0.02 0.01 0.06 0.11 0.22 0.25 0.38 0.31 0.17 0.16 0.16 0.13 0.13 0.10 0.07 0.10 0.16 0.14 0.19 0.16 0.20 0.20 0.22 0.20 0.21 0.20 0.20 0.18 0.19 0.17 0.18 0.16 0.18 0.14 0.12 0.12 0.10 0.09 0.08 0.07 0.06
0.00 0.00 0.00 0.00 0.00 0.00 0.00 0.00 0.00 0.00 0.00 0.00 0.00 0.00 0.00 0.00 0.00 0.00 0.00 0.00 0.00 0.00 0.00 0.00 0.00 0.00 0.00 0.00 0.00 0.00 0.00 0.00 0.01 0.01 0.00 0.01 0.01 0.01 0.03 0.02 0.00 0.01 0.02 0.01 0.02 0.02 0.02 0.01 0.03 0.10 0.18 0.32 0.31 0.29 0.23 0.16 0.08 0.11 0.12 0.14 0.06 0.06 0.11 0.18 0.21 0.18 0.17 0.20 0.17 0.17 0.15 0.12 0.10 0.10 0.08 0.07 0.07 0.09 0.08 0.07 0.06 0.06 0.06 0.06 0.07 0.08 0.09
0.00 0.01 0.01 0.01 0.00 0.00 0.00 0.00 0.00 0.00 0.00 0.00 0.00 0.00 0.00 0.00 0.00 0.00 0.00 0.00 0.00 0.00 0.00 0.00 0.00 0.00 0.01 0.00 0.01 0.01 0.00 0.00 0.00 0.00 0.00 0.01 0.01 0.02 0.04 0.03 0.02 0.02 0.02 0.03 0.03 0.04 0.02 0.02 0.05 0.10 0.20 0.34 0.25 0.28 0.25 0.18 0.28 0.06 0.16 0.06 0.04 0.03 0.07 0.14 0.14 0.15 0.14 0.12 0.10 0.10 0.11 0.12 0.12 0.07 0.04 0.03 0.05 0.05 0.05 0.05 0.05 0.07 0.06 0.06 0.06 0.05 0.08
0.01 0.01 0.00 0.00 0.00 0.00 0.00 0.00 0.00 0.00 0.00 0.00 0.00 0.00 0.00 0.00 0.00 0.00 0.01 0.01 0.01 0.00 0.00 0.01 0.03 0.01 0.02 0.02 0.02 0.03 0.04 0.00 0.00 0.01 0.01 0.01 0.01 0.02 0.03 0.03 0.03 0.03 0.09 0.02 0.02 0.02 0.02 0.04 0.11 0.12 0.19 0.34 0.29 0.27 0.17 0.23 0.09 0.06 0.05 0.09 0.09 0.01 0.04 0.09 0.07 0.08 0.10 0.06 0.02 0.01 0.02 0.02 0.02 0.01 0.00 0.00 0.00 0.00 0.01 0.01 0.00 0.01 0.01 0.02 0.01 0.01 0.02
0.03 0.03 0.01 0.00 0.00 0.00 0.00 0.00 0.00 0.00 0.00 0.00 0.00 0.00 0.00 0.00 0.00 0.00 0.00 0.00 0.00 0.00 0.01 0.01 0.01 0.03 0.04 0.06 0.03 0.02 0.01 0.02 0.03 0.02 0.01 0.01 0.01 0.03 0.04 0.03 0.04 0.04 0.02 0.02 0.02 0.04 0.02 0.06 0.07 0.10 0.20 0.33 0.30 0.20 0.18 0.08 0.05 0.04 0.05 0.04 0.04 0.03 0.03 0.04 0.05 0.04 0.03 0.01 0.01 0.03 0.03 0.02 0.02 0.01 0.01 0.01 0.00 0.01 0.01 0.02 0.02 0.02 0.01 0.03 0.01 0.01 0.01